Weather History for Adana, Turkey

Change the Weather History Date:

Tuesday, November 6, 2012

  Actual Average Record
Temperature  
Mean Temperature 70 °F -  
Max Temperature 82 °F 68 °F 86 °F (2003)
Min Temperature 59 °F 47 °F 39 °F (2006)
Cooling Degree Days 6    
Growing Degree Days 20 (Base 50)    
Moisture  
Dew Point 55 °F    
Average Humidity 65    
Maximum Humidity 88    
Minimum Humidity 32    
Precipitation  
Precipitation 0.00 in 0.11 in - ()
Sea Level Pressure  
Sea Level Pressure 30.00 in    
Wind  
Wind Speed 4 mph ()    
Max Wind Speed 8 mph    
Max Gust Speed -    
Averages and records for this station are not official NWS values.
T = Trace of Precipitation, MM = Missing Value Source: Averaged Metar Reports

Daily Weather History Graph

Daily Weather History Graph

Search for Another Location

Airport:

Trip Planner

Search our weather history database for the weather conditions in past years. The results will help you decide how hot, cold, wet, or windy it might be!

Date:

Astronomy

Nov. 06, 2012 Rise Set
Actual Time 6:08 AM EET 4:36 PM EET
Civil Twilight 5:40 AM EET 5:03 PM EET
Nautical Twilight 5:10 AM EET 5:34 PM EET
Astronomical Twilight 4:39 AM EET 6:04 PM EET
Moon 10:52 PM EET (11/6) 11:49 AM EET (11/6)
Length of Visible Light 11h 22m
Length of Day
10h 28m
Waning Gibbous, 56% of the Moon is Illuminated
Nov 6
Waning Gibbous
Nov 7
Last Quarter
Nov 14
New
Nov 20
First Quarter
Nov 28
Full

Hourly Weather History & Observations

Time (EET) Temp. Heat Index Dew Point Humidity Pressure Visibility Wind Dir Wind Speed Gust Speed Precip Events Conditions
12:20 AM 60.8 °F - 55.4 °F 82% 29.98 in - NE 6.9 mph - N/A   Clear
12:50 AM 60.8 °F - 53.6 °F 77% 29.98 in - NE 5.8 mph - N/A   Clear
1:20 AM 60.8 °F - 55.4 °F 82% 29.98 in - Variable 1.2 mph - N/A   Clear
1:50 AM 59.0 °F - 53.6 °F 82% 29.98 in - WNW 3.5 mph - N/A   Clear
2:20 AM 59.0 °F - 51.8 °F 77% 29.98 in - NNW 2.3 mph - N/A   Clear
2:50 AM 59.0 °F - 53.6 °F 82% 29.98 in - NNE 2.3 mph - N/A   Clear
3:20 AM 60.8 °F - 53.6 °F 77% 29.98 in - North 2.3 mph - N/A   Clear
3:50 AM 59.0 °F - 53.6 °F 82% 29.98 in - Variable 2.3 mph - N/A   Clear
4:20 AM 60.8 °F - 55.4 °F 82% 29.98 in - NNE 3.5 mph - N/A   Clear
4:50 AM 60.8 °F - 53.6 °F 77% 29.98 in - North 3.5 mph - N/A   Clear
5:20 AM 62.6 °F - 51.8 °F 68% 29.98 in - North 3.5 mph - N/A   Clear
5:50 AM 60.8 °F - 50.0 °F 68% 29.98 in - North 2.3 mph - N/A   Clear
6:20 AM 59.0 °F - 51.8 °F 77% 30.01 in - Calm Calm - N/A   Clear
6:50 AM 59.0 °F - 53.6 °F 82% 30.01 in - North 2.3 mph - N/A   Clear
7:20 AM 62.6 °F - 55.4 °F 77% 30.01 in - Variable 2.3 mph - N/A   Clear
7:50 AM 66.2 °F - 57.2 °F 73% 30.01 in - ENE 3.5 mph - N/A   Clear
8:20 AM 69.8 °F - 53.6 °F 56% 30.01 in - ENE 4.6 mph - N/A   Clear
8:50 AM 71.6 °F - 53.6 °F 53% 30.01 in - NNE 3.5 mph - N/A   Clear
9:20 AM 73.4 °F - 51.8 °F 47% 30.01 in - North 3.5 mph - N/A   Clear
9:50 AM 75.2 °F - 51.8 °F 44% 30.01 in - NE 4.6 mph - N/A   Clear
10:20 AM 77.0 °F - 51.8 °F 41% 30.01 in - East 4.6 mph - N/A   Clear
10:50 AM 78.8 °F - 51.8 °F 39% 30.01 in - Variable 3.5 mph - N/A   Clear
11:20 AM 78.8 °F - 50.0 °F 36% 29.98 in - SE 3.5 mph - N/A   Clear
11:50 AM 80.6 °F - 51.8 °F 37% 29.98 in - SSE 3.5 mph - N/A   Clear
12:20 PM 82.4 °F - 50.0 °F 32% 29.98 in - Variable 3.5 mph - N/A   Clear
12:50 PM 80.6 °F - 50.0 °F 34% 29.98 in - SSE 4.6 mph - N/A   Clear
1:20 PM 82.4 °F - 51.8 °F 35% 29.95 in - South 4.6 mph - N/A   Clear
1:50 PM 82.4 °F - 51.8 °F 35% 29.95 in - South 4.6 mph - N/A   Clear
2:20 PM 80.6 °F - 51.8 °F 37% 29.95 in - South 6.9 mph - N/A   Clear
2:50 PM 80.6 °F - 51.8 °F 37% 29.95 in - SSW 6.9 mph - N/A   Clear
3:20 PM 80.6 °F 80.5 °F 55.4 °F 42% 29.95 in - SSW 6.9 mph - N/A   Clear
3:50 PM 77.0 °F - 57.2 °F 50% 29.95 in - SSW 8.1 mph - N/A   Clear
4:20 PM 75.2 °F - 57.2 °F 53% 29.98 in - SSW 6.9 mph - N/A   Clear
4:50 PM 71.6 °F - 57.2 °F 60% 29.98 in - SSW 6.9 mph - N/A   Clear
5:20 PM 69.8 °F - 57.2 °F 64% 29.98 in - SSW 6.9 mph - N/A   Clear
5:50 PM 69.8 °F - 59.0 °F 68% 30.01 in - SW 5.8 mph - N/A   Clear
6:20 PM 69.8 °F - 59.0 °F 68% 30.01 in - WSW 4.6 mph - N/A   Clear
6:50 PM 68.0 °F - 59.0 °F 73% 30.01 in - West 3.5 mph - N/A   Clear
7:20 PM 69.8 °F - 60.8 °F 73% 30.01 in - WNW 3.5 mph - N/A   Clear
7:50 PM 68.0 °F - 60.8 °F 78% 30.04 in - Variable 3.5 mph - N/A   Clear
8:20 PM 68.0 °F - 60.8 °F 78% 30.04 in - NE 3.5 mph - N/A   Clear
8:50 PM 68.0 °F - 60.8 °F 78% 30.04 in - NE 3.5 mph - N/A   Clear
9:20 PM 64.4 °F - 59.0 °F 83% 30.04 in - SE 2.3 mph - N/A   Clear
9:50 PM 62.6 °F - 59.0 °F 88% 30.04 in - SE 2.3 mph - N/A   Clear
10:20 PM 62.6 °F - 59.0 °F 88% 30.04 in - Variable 2.3 mph - N/A   Clear
10:50 PM 62.6 °F - 59.0 °F 88% 30.04 in - Calm Calm - N/A   Clear
11:20 PM 60.8 °F - 57.2 °F 88% 30.04 in - Calm Calm - N/A   Clear
11:50 PM 60.8 °F - 57.2 °F 88% 30.04 in - NE 2.3 mph - N/A   Clear